Torna al catalogo

FENGYUN 1C DEB

AttivoSSO
NORAD 29858·DEBRIS·🇨🇳 China

Lanciato May 10, 1999 da Taiyuan Satellite Launch Center

Loading…

Prossimi Passaggi (prossime 24 ore)

TLE

AggiornatoSource: Space-Track

Epoca: Sep 14, 2026, 06:05 UTC

1 29858U 99025FC  26257.25416571  .00000548  00000-0  50505-3 0  9995
2 29858  99.2162 356.0033 0195784  55.0448 332.8065 13.78493493983494

Traccia FENGYUN 1C DEB in tempo reale con AllMySat

Download on the App Store